{"data":{"norad_id":55994,"intl_designator":"2023-042J","name":"STARLINK-5956","alt_names":[],"object_type":"PAYLOAD","status":"ACTIVE","operator":null,"country":"US","launch_date":"2023-03-24","launch_site_code":"AFETR","launch_vehicle":null,"mission":null,"orbit_class":"UNKNOWN","rcs_meters":null,"size_class":null,"mass_kg":null,"dimensions":null,"purposes":["comms"],"wikipedia_slug":null,"has_3d_model":false,"image_url":null,"decayed_at":null,"tle_current":{"epoch":"2026-09-19T17:20:59.843040Z","epoch_age_seconds":173344,"freshness":"STALE","line1":"1 55994U 23042J   26262.72291485  .00000267  00000+0  19273-4 0  9999","line2":"2 55994  43.0075  43.8681 0003181 265.7880  94.2608 15.27577134192544","mean_motion":15.27577134,"eccentricity":0.0003181,"inclination_deg":43.0075,"raan_deg":43.8681,"arg_perigee_deg":265.788,"mean_anomaly_deg":94.2608,"bstar":1.9273e-5,"rev_number":19254,"period_min":94.266925574444,"perigee_km":480.87513186107,"apogee_km":485.24022391514,"semimajor_km":6861.1946778881,"source":"CELESTRAK","updated_at":"2026-09-21T09:00:33.350856Z"}}}